Weather reports worldwide

Advertisment
Castlederg, United Kingdom (3904): temperature & dewpoint: 11.11.2018 03:00:00 - 17.11.2018 03:00:00 (GMT)Castlederg, United Kingdom (3904): temperature -20cm: 11.11.2018 03:00:00 - 17.11.2018 03:00:00 (GMT)Castlederg, United Kingdom (3904): wind speed & gusts: 11.11.2018 03:00:00 - 17.11.2018 03:00:00 (GMT)Castlederg, United Kingdom (3904): wind direction: 11.11.2018 03:00:00 - 17.11.2018 03:00:00 (GMT)Castlederg, United Kingdom (3904): reduced air pressure: 11.11.2018 03:00:00 - 17.11.2018 03:00:00 (GMT)Castlederg, United Kingdom (3904): visibility: 11.11.2018 03:00:00 - 17.11.2018 03:00:00 (GMT)Castlederg, United Kingdom (3904): precipitation: 11.11.2018 03:00:00 - 17.11.2018 03:00:00 (GMT)
Date & Time tt [°C] td [°C] tt -20cm [°C] ff [km/h] ff [kn] fx [km/h] fx [kn] dd ppp [hPa] vv [km] rr [mm]
17.11.2018 03:00:00 12,0 10,3 - 15 8 - - E 1021,3 11 0,0
17.11.2018 02:00:00 12,1 10,1 - 16 9 - - E 1021,3 14 0,0
17.11.2018 01:00:00 12,3 10,1 - 18 10 - - ESE 1021,1 17 0,0
17.11.2018 00:00:00 12,4 10,0 - 16 9 - - ESE 1021,0 19 0,0
16.11.2018 23:00:00 12,9 10,0 - 18 10 - - SE 1021,2 20 0,0
16.11.2018 22:00:00 12,9 10,3 - 18 10 - - SE 1021,0 17 0,0
16.11.2018 21:00:00 12,7 10,3 - 22 12 50 27 SE 1020,5 18 0,0
16.11.2018 20:00:00 12,5 10,4 - 24 13 - - SE 1020,1 15 0,0
16.11.2018 19:00:00 12,0 10,2 - 22 12 - - SE 1019,9 16 0,0
16.11.2018 18:00:00 11,9 10,4 - 11 6 - - ESE 1019,8 15 0,0
16.11.2018 17:00:00 12,3 9,7 - 5 3 - - N 1019,4 26 0,0
16.11.2018 16:00:00 12,8 10,2 - 9 5 - - SE 1019,0 25 0,0
16.11.2018 15:00:00 12,8 10,3 - 13 7 - - SE 1018,9 24 0,0
16.11.2018 14:00:00 12,8 10,1 - 16 9 - - SSE 1018,7 28 0,0
16.11.2018 13:00:00 12,8 10,3 - 18 10 - - SE 1018,4 27 0,0
16.11.2018 12:00:00 12,1 10,3 - 5 3 - - ESE 1018,6 26 0,0
16.11.2018 11:00:00 11,1 9,8 - 18 10 - - ESE 1018,4 23 0,0
16.11.2018 10:00:00 9,9 9,0 - 16 9 - - ESE 1018,2 22 0,0
16.11.2018 09:00:00 8,6 7,7 9,0 5 3 - - ENE 1018,3 18 0,0
16.11.2018 08:00:00 8,4 7,5 - 13 7 - - ESE 1018,0 24 0,0
16.11.2018 07:00:00 8,0 7,2 - 15 8 - - ESE 1017,5 20 0,0
16.11.2018 06:00:00 7,8 7,2 - 18 10 - - SSE 1017,5 19 0,0
16.11.2018 05:00:00 5,2 4,8 - 11 6 - - ESE 1016,7 16 0,0
16.11.2018 04:00:00 5,3 4,5 - 11 6 - - SE 1016,8 23 0,0
16.11.2018 03:00:00 6,6 5,8 - 13 7 - - S 1016,5 22 0,0
16.11.2018 02:00:00 6,5 5,7 - 15 8 - - S 1016,3 19 0,0
16.11.2018 01:00:00 6,9 6,0 - 13 7 - - S 1016,4 22 0,0
16.11.2018 00:00:00 7,0 5,9 - 11 6 - - S 1016,1 23 0,0
15.11.2018 23:00:00 7,9 6,6 - 13 7 - - S 1015,6 30 0,0
15.11.2018 22:00:00 7,1 6,1 - 11 6 - - S 1015,0 35 0,0
15.11.2018 21:00:00 7,0 6,0 - 9 5 - - S 1013,9 35 0,0
15.11.2018 20:00:00 8,7 6,8 - 16 9 - - SSW 1013,0 40 0,0
15.11.2018 19:00:00 8,8 6,6 - 13 7 - - SSW 1012,7 50 0,0
15.11.2018 18:00:00 9,8 7,2 - 22 12 - - SSW 1011,3 50 0,0
15.11.2018 17:00:00 10,1 8,1 - 26 14 - - SSW 1010,0 50 0,0
15.11.2018 16:00:00 10,0 7,9 - 22 12 - - S 1009,2 50 0,2
15.11.2018 15:00:00 9,7 8,0 - 15 8 - - S 1008,8 35 0,6
15.11.2018 14:00:00 9,6 8,9 - 13 7 - - SW 1008,9 7 1,4
15.11.2018 13:00:00 11,9 8,9 - 28 15 52 28 S 1007,7 13 0,0
15.11.2018 12:00:00 12,7 9,7 - 34 18 54 29 SSE 1006,6 35 0,0
15.11.2018 11:00:00 12,1 8,9 - 35 19 67 36 S 1006,9 30 0,0
15.11.2018 10:00:00 12,2 9,1 - 35 19 59 32 SSE 1006,6 35 0,0
15.11.2018 09:00:00 13,3 10,9 9,7 35 19 57 31 S 1006,8 40 0,0
15.11.2018 08:00:00 13,3 11,4 - 37 20 57 31 SSE 1006,8 50 0,0
15.11.2018 07:00:00 13,0 11,6 - 29 16 46 25 SSE 1006,7 25 0,0
15.11.2018 06:00:00 12,6 11,7 - 26 14 - - SSE 1007,6 14 1,0
15.11.2018 05:00:00 12,7 11,6 - 21 11 - - SSE 1007,8 50 0,2
15.11.2018 04:00:00 12,6 11,7 - 16 9 - - S 1008,2 14 0,0
15.11.2018 03:00:00 12,6 11,9 - 15 8 - - S 1008,1 7 0,6
15.11.2018 02:00:00 12,6 11,9 - 11 6 - - S 1008,5 3,5 0,2
15.11.2018 01:00:00 12,7 11,8 - 13 7 - - SSW 1008,5 6 0,2
15.11.2018 00:00:00 12,7 11,8 - 18 10 - - S 1008,2 4,5 0,2
14.11.2018 23:00:00 13,3 11,8 - 21 11 - - S 1008,0 50 0,0
14.11.2018 22:00:00 13,3 11,9 - 24 13 - - S 1007,6 23 0,2
14.11.2018 21:00:00 13,6 11,8 - 22 12 - - S 1007,1 21 0,0
14.11.2018 20:00:00 14,1 11,6 - 26 14 - - S 1006,5 45 0,0
14.11.2018 19:00:00 14,2 11,7 - 21 11 - - S 1006,3 50 0,0
14.11.2018 18:00:00 14,5 11,8 - 18 10 - - SSE 1005,9 50 0,0
14.11.2018 17:00:00 14,4 11,8 - 26 14 48 26 SSE 1005,3 50 0,0
14.11.2018 16:00:00 14,6 12,0 - 24 13 46 25 SSE 1005,2 50 0,0
14.11.2018 15:00:00 14,4 12,2 - 26 14 46 25 SSE 1005,5 50 0,0
14.11.2018 14:00:00 14,7 12,3 - 29 16 46 25 S 1005,6 50 0,0
14.11.2018 13:00:00 14,7 12,3 - 24 13 50 27 S 1005,7 50 0,0
14.11.2018 12:00:00 14,6 12,4 - 22 12 - - S 1005,6 50 0,0
14.11.2018 11:00:00 14,4 12,6 - 22 12 52 28 S 1005,4 45 0,0
14.11.2018 10:00:00 14,1 12,4 - 28 15 52 28 S 1004,5 50 0,0
14.11.2018 09:00:00 14,1 12,3 9,0 26 14 46 25 S 1004,1 50 0,0
14.11.2018 08:00:00 14,2 12,5 - 26 14 46 25 S 1003,6 26 0,0
14.11.2018 07:00:00 14,2 12,6 - 22 12 - - S 1003,5 50 0,8
14.11.2018 06:00:00 13,5 12,6 - 18 10 - - S 1003,5 7 2,6
14.11.2018 05:00:00 13,1 12,2 - 18 10 - - S 1003,5 11 2,4
14.11.2018 04:00:00 12,2 11,3 - 18 10 - - S 1003,8 6 2,8
14.11.2018 03:00:00 11,5 10,7 - 9 5 - - SE 1004,4 7 2,2
14.11.2018 02:00:00 11,2 10,4 - 13 7 - - SSE 1005,1 5 0,0
14.11.2018 01:00:00 11,3 10,0 - 15 8 - - S 1006,2 50 0,0
14.11.2018 00:00:00 11,1 9,8 - 24 13 50 27 SSE 1006,7 50 0,2
13.11.2018 23:00:00 10,9 9,6 - 28 15 - - S 1007,4 13 0,0
13.11.2018 22:00:00 10,2 9,3 - 28 15 - - SSE 1007,8 5 1,4
13.11.2018 21:00:00 10,1 8,9 - 26 14 - - S 1009,0 4,8 3,0
13.11.2018 20:00:00 10,3 8,8 - 24 13 46 25 S 1009,7 4,7 0,8
13.11.2018 19:00:00 10,3 8,2 - 24 13 - - SSE 1009,8 35 0,2
13.11.2018 18:00:00 10,4 7,9 - 24 13 - - SSE 1010,2 50 0,0
13.11.2018 17:00:00 10,0 7,5 - 24 13 - - S 1010,2 50 0,0
13.11.2018 16:00:00 10,2 7,3 - 16 9 - - S 1010,9 50 0,0
13.11.2018 15:00:00 10,1 7,2 - 16 9 - - S 1011,6 50 0,0
13.11.2018 14:00:00 10,0 7,5 - 18 10 - - SSE 1011,7 45 0,0
13.11.2018 13:00:00 9,8 7,2 - 18 10 - - S 1012,1 29 0,0
13.11.2018 12:00:00 10,3 7,4 - 16 9 - - S 1012,1 45 0,0
13.11.2018 11:00:00 9,5 6,5 - 11 6 - - S 1012,4 45 0,0
13.11.2018 10:00:00 8,4 6,5 - 24 13 - - SSW 1012,0 40 0,0
13.11.2018 09:00:00 7,6 6,0 8,2 16 9 - - SSW 1011,2 45 0,0
13.11.2018 08:00:00 7,8 6,4 - 11 6 - - SW 1010,6 45 0,0
13.11.2018 07:00:00 7,8 6,7 - 9 5 - - W 1009,3 24 0,0
13.11.2018 06:00:00 8,1 6,8 - 16 9 - - WSW 1008,3 30 0,0
13.11.2018 05:00:00 7,1 4,9 - 11 6 - - WSW 1007,5 40 0,0
13.11.2018 04:00:00 8,3 5,9 - 15 8 - - W 1006,2 35 0,0
13.11.2018 03:00:00 8,3 6,0 - 16 9 - - WSW 1005,2 35 0,0
13.11.2018 02:00:00 8,8 7,2 - 18 10 - - W 1004,0 30 0,0
13.11.2018 01:00:00 8,8 7,0 - 22 12 - - WSW 1002,6 35 0,0
13.11.2018 00:00:00 8,7 7,5 - 24 13 50 27 WSW 1001,3 16 0,2
12.11.2018 23:00:00 8,4 6,8 - 21 11 - - WSW 1000,2 45 0,0
12.11.2018 22:00:00 8,4 7,4 - 21 11 - - WSW 999,0 25 0,2
12.11.2018 21:00:00 8,6 7,4 - 21 11 - - WSW 998,2 9 0,2
12.11.2018 20:00:00 8,8 7,7 - 18 10 - - SW 997,5 21 0,2
12.11.2018 19:00:00 8,9 7,3 - 16 9 - - SSW 996,7 50 0,0
12.11.2018 18:00:00 8,6 7,1 - 9 5 - - S 996,0 26 0,2
12.11.2018 17:00:00 9,5 6,6 - 15 8 - - SSE 995,6 50 0,0
12.11.2018 16:00:00 9,9 6,7 - 18 10 - - S 995,0 50 0,0
12.11.2018 15:00:00 9,9 6,9 - 18 10 - - S 994,7 50 0,0
12.11.2018 14:00:00 10,2 7,0 - 18 10 - - S 994,9 50 0,0
12.11.2018 13:00:00 10,4 7,6 - 18 10 - - S 994,9 45 0,0
12.11.2018 12:00:00 10,2 7,4 - 21 11 - - S 994,9 50 0,0
12.11.2018 11:00:00 8,8 6,5 - 22 12 - - SSE 995,0 45 0,0
12.11.2018 10:00:00 8,4 6,5 - 21 11 - - SSE 994,6 35 0,0
12.11.2018 09:00:00 8,1 6,4 8,0 18 10 - - SSE 994,4 35 0,0
12.11.2018 08:00:00 7,5 6,0 - 15 8 - - SSE 994,2 40 0,0
12.11.2018 07:00:00 7,6 6,1 - 16 9 - - SE 993,8 40 0,0
12.11.2018 06:00:00 7,3 5,7 - 16 9 - - SE 993,5 35 0,0
12.11.2018 05:00:00 8,3 6,4 - 13 7 - - SSE 993,2 35 0,0
12.11.2018 04:00:00 8,0 6,2 - 13 7 - - SSE 992,8 35 0,0
12.11.2018 03:00:00 8,3 6,4 - 15 8 - - S 992,4 35 0,0
12.11.2018 02:00:00 8,7 6,7 - 21 11 - - SSE 992,2 35 0,0
12.11.2018 01:00:00 8,4 6,5 - 16 9 - - SSE 991,9 30 0,0
12.11.2018 00:00:00 8,6 6,7 - 15 8 - - SSE 991,7 35 0,0
11.11.2018 23:00:00 8,2 6,5 - 16 9 - - SSE 991,4 20 0,0
11.11.2018 22:00:00 8,1 6,5 - 21 11 - - SSE 991,0 35 0,0
11.11.2018 21:00:00 8,0 6,4 - 18 10 - - SSE 990,2 23 0,0
11.11.2018 20:00:00 7,4 5,8 - 9 5 - - ESE 990,1 50 0,0
11.11.2018 19:00:00 7,5 5,3 - 15 8 - - SSE 989,7 50 0,0
11.11.2018 18:00:00 7,2 5,2 - 9 5 - - ESE 989,3 50 0,0
11.11.2018 17:00:00 7,2 5,0 - 9 5 - - SE 989,1 50 0,0
11.11.2018 16:00:00 8,3 5,9 - 16 9 - - SE 988,7 50 0,0
11.11.2018 15:00:00 9,0 5,7 - 16 9 - - SSE 988,6 50 0,0
11.11.2018 14:00:00 9,0 6,3 - 15 8 - - SE 988,5 50 0,0
11.11.2018 13:00:00 7,4 5,2 - 18 10 - - S 988,8 45 0,0
11.11.2018 12:00:00 7,5 5,2 - 22 12 - - S 988,8 40 0,0
11.11.2018 11:00:00 8,3 6,1 - 8 4 - - ESE 988,3 50 0,0
11.11.2018 10:00:00 5,8 5,2 - 8 4 - - ENE 988,3 23 0,0
11.11.2018 09:00:00 4,8 4,1 7,7 9 5 - - SE 987,9 23 0,0
11.11.2018 08:00:00 4,6 4,0 - 5 3 - - ENE 987,2 15 0,2
11.11.2018 07:00:00 4,7 4,0 - - - - - - 986,6 14 0,0
11.11.2018 06:00:00 4,6 4,1 - 11 6 - - SE 986,1 11 0,0
11.11.2018 05:00:00 4,8 4,3 - 11 6 - - E 985,9 15 0,0
11.11.2018 04:00:00 4,2 3,9 - 8 4 - - E 985,8 15 0,0
11.11.2018 03:00:00 3,6 3,1 - 4 2 - - ENE 985,7 13 0,0

tt = temperature
td = dewpoint
tt -20cm = temperature -20cm
ff = wind speed
fx = gusts
dd = wind direction
ppp = reduced air pressure
vv = visibility
rr = precipitation

Next stations